User: anonymous   Login
Location: Unspecified
(0.0000°N, 0.0000°E)
Time: 15:32:36
(UTC+00:00)
Language:

SL-24 R/B - Orbit

View from above orbital plane
View from above orbital plane
View from above satellite
View from above satellite

Ground track
Ground track

The orbit data is extracted from the following two-line orbital elements,

1 40047U 14033AP  21337.00849165 -.00000024  00000-0  36530-5 0  9994
2 40047  97.8788 118.2728 0570690  67.6962 298.3659 13.61435186370523
Epoch (UTC): 03 December 2021 00:12:13
Eccentricity: 0.0570690
inclination: 97.8788°
perigee height: 607 km
apogee height: 1453 km
right ascension of ascending node: 118.2728°
argument of perigee: 67.6962°
revolutions per day: 13.61435186
mean anomaly at epoch: 298.3659°
orbit number at epoch: 37052

The dashed part of the orbit path shows where the satellite is in the earth's shadow,  

DLR